SCP
0 0 0 0 0 0 0 0 0 0 0 0 0 0 0 0 0 0 0 0 0 0 0 0 0 0 0 0 0 0 0 0 0 0 0 0 0 0 0 0 0 0 0 0
0 0 0 0 0 0 0 0 0 0 0 0 0 0 0 0 0 0 0 0 0 0 0 0 0 0 0 0 0 0 0 0 0 0 0 0 0 0 0 0 0 0 0 0
0 0 0 0 0 0 0 0 0 0 0 0 0 0 0 0 0 0 0 0 0 0 0 0 0 0 0 0 0 0 0 0 0 0 0 0 0 0 0 0 0 0 0 0
0 0 0 0 0 0 0 0 0 0 0 0 0 0 0 0 0 0 0 0 0 0 0 0 0 0 0 0 0 0 0 0 0 0 0 0 0 0 0 0 0 0 0 0
0 0 0 0 0 0 0 0 0 0 0 0 0 0 0 0 0 0 0 0 0 0 0 0 0 0 0 0 0 0 0 0 0 0 0 0 0 0 0 0 0 0 0 0
0 0 0 0 0 0 0 0 0 0 0 0 0 0 0 0 0 0 0 0 0 0 0 0 0 0 0 0 0 0 0 0 0 0 0 0 0 0 0 0 0 0 0 0
0 0 0 0 0 0 0 0 0 0 0 0 0 0 0 0 0 0 0 0 0 0 0 0 0 0 0 0 0 0 0 0 0 0 0 0 0 0 0 0 0 0 0 0
0 0 0 0 0 0 0 0 0 0 0 0 0 0 0 0 0 0 0 0 0 0 0 0 0 0 0 0 0 0 0 0 0 0 0 0 0 0 0 0 0 0 0 0
0 0 0 0 0 0 0 0 0 0 0 0 0 0 0 0 0 0 0 0 0 0 0 0 0 0 0 0 0 0 0 0 0 0 0 0 0 0 0 0 0 0 0 0
0 0 0 0 0 0 0 0 0 0 0 0 0 0 0 0 0 0 0 0 0 0 0 0 0 0 0 0 0 0 0 0 0 0 0 0 0 0 0 0 0 0 0 0
0 0 0 0 0 0 0 0 0 0 0 0 0 0 0 0 0 0 0 0 0 0 0 0 0 0 0 0 0 0 0 0 0 0 0 0 0 0 0 0 0 0 0 0
0 0 0 0 0 0 0 0 0 0 0 0 0 0 0 0 0 0 0 0 0 0 0 0 0 0 0 0 0 0 0 0 0 0 0 0 0 0 0 0 0 0 0 0
0 0 0 0 0 0 0 0 0 0 0 0 0 0 0 0 0 0 0 0 0 0 0 0 0 0 0 0 0 0 0 0 0 0 0 0 0 0 0 0 0 0 0 0
0 0 0 0 0 0 0 0 0 0 0 0 0 0 0 0 0 0 0 0 0 0 0 0 0 0 0 0 0 0 0 0 0 0 0 0 0 0 0 0 0 0 0 0
0 0 0 0 0 0 0 0 0 0 0 0 0 0 0 0 0 0 0 0 0 0 0 0 0 0 0 0 0 0 0 0 0 0 0 0 0 0 0 0 0 0 0 0
0 0 0 0 0 0 0 0 0 0 0 0 0 0 0 0 0 0 0 0 0 0 0 0 0 0 0 0 0 0 0 0 0 0 0 0 0 0 0 0 0 0 0 0
0 0 0 0 0 0 0 0 0 0 0 0 0 0 0 0 0 0 0 0 0 0 0 0 0 0 0 0 0 0 0 0 0 0 0 0 0 0 0 0 0 0 0 0
0 0 0 0 0 0 0 0 0 0 0 0 0 0 0 0 0 0 0 0 0 0 0 0 0 0 0 0 0 0 0 0 0 0 0 0 0 0 0 0 0 0 0 0
0 0 0 0 0 0 0 0 0 0 0 0 0 0 0 0 0 0 0 0 0 0 0 0 0 0 0 0 0 0 0 0 0 0 0 0 0 0 0 0 0 0 0 0
0 0 0 0 0 0 0 0 0 0 0 0 0 0 0 0 0 0 0 0 0 0 0 0 0 0 0 0 0 0 0 0 0 0 0 0 0 0 0 0 0 0 0 0
0 0 0 0 0 0 0 0 0 0 0 0 0 0 0 0 0 0 0 0 0 0 0 0 0 0 0 0 0 0 0 0 0 0 0 0 0 0 0 0 0 0 0 0
0 0 0 0 0 0 0 0 0 0 0 0 0 0 0 0 0 0 0 0 0 0 0 0 0 0 0 0 0 0 0 0 0 0 0 0 0 0 0 0 0 0 0 0
0 0 0 0 0 0 0 0 0 0 0 0 0 0 0 0 0 0 0 0 0 0 0 0 0 0 0 0 0 0 0 0 0 0 0 0 0 0 0 0 0 0 0 0
0 0 0 0 0 0 0 0 0 0 0 0 0 0 0 0 0 0 0 0 0 0 0 0 0 0 0 0 0 0 0 0 0 0 0 0 0 0 0 0 0 0 0 0
0 0 0 0 0 0 0 0 0 0 0 0 0 0 0 0 0 0 0 0 0 0 0 0 0 0 0 0 0 0 0 0 0 0 0 0 0 0 0 0 0 0 0 0
0 0 0 0 0 0 0 0 0 0 0 0 0 0 0 0 0 0 0 0 0 0 0 0 0 0 0 0 0 0 0 0 0 0 0 0 0 0 0 0 0 0 0 0
0 0 0 0 0 0 0 0 0 0 0 0 0 0 0 0 0 0 0 0 0 0 0 0 0 0 0 0 0 0 0 0 0 0 0 0 0 0 0 0 0 0 0 0
Wind_Speed
7 4 4 8 11 14 15 13 12 13 13 18 17 14 11 7 6 10 13 15 15 14 12 10 9 8 6 5 4 5 6 7 7 8 9 9 10 10 11 11 11 12 13 14
6 3 5 9 15 17 17 15 17 19 21 20 16 9 8 8 9 13 15 16 16 14 12 12 10 9 7 5 4 5 6 7 7 8 9 9 10 10 11 11 11 12 12 13
4 2 5 13 13 18 12 14 14 15 15 9 7 10 11 9 11 14 15 16 17 15 14 12 11 9 8 6 4 5 6 7 7 8 9 10 10 10 11 11 11 12 12 13
4 3 10 5 3 11 11 12 16 16 15 14 12 10 10 11 12 14 14 16 16 14 13 11 10 9 7 6 5 6 6 7 7 7 9 10 11 11 11 11 11 11 12 13
3 5 11 6 6 9 9 10 14 18 19 16 3 7 10 11 13 13 13 14 14 14 13 12 11 10 8 7 6 6 7 7 7 8 9 10 11 11 11 11 11 11 12 13
4 5 9 4 5 5 4 8 7 13 16 9 2 7 6 4 9 11 11 12 12 13 13 12 11 10 9 8 7 7 7 7 7 8 9 10 11 11 11 11 11 11 12 12
8 8 13 2 8 8 5 5 3 11 12 9 11 10 1 4 7 10 12 13 13 14 12 12 12 11 10 8 8 6 6 7 8 8 9 10 10 10 10 10 11 11 12 12
9 9 14 8 12 12 9 1 3 7 9 11 14 10 5 7 9 12 13 14 15 13 12 11 12 11 10 10 7 5 6 7 8 8 8 8 10 10 9 9 10 10 11 11
14 12 3 13 13 9 3 5 7 7 9 10 12 12 10 10 11 13 14 15 14 14 13 12 12 12 11 9 7 6 6 7 7 8 8 7 8 9 8 7 7 9 9 9
10 15 10 12 15 13 12 15 15 11 9 9 13 13 12 11 12 14 15 15 15 15 14 13 13 12 11 8 7 6 6 6 6 7 7 7 6 6 6 6 7 9 9 10
12 11 8 13 18 20 19 18 18 16 14 14 14 14 13 13 14 15 15 15 15 15 15 15 14 13 11 10 8 7 7 6 6 6 6 6 5 5 6 6 7 9 8 9
14 9 10 10 6 9 13 16 16 14 14 13 15 15 14 13 14 15 16 16 16 16 15 14 13 13 12 11 10 8 6 5 4 4 4 5 6 5 5 6 10 11 11 11
18 8 10 13 9 9 13 15 12 13 15 13 13 14 14 13 13 15 17 18 19 18 16 15 14 13 12 12 11 10 7 5 4 4 4 4 5 6 6 5 6 7 10 13
16 9 10 14 17 17 16 14 10 11 12 12 11 12 13 13 14 17 19 19 18 17 16 15 14 14 13 13 12 10 8 7 6 4 4 4 4 5 5 6 7 6 7 10
17 15 18 19 18 17 13 8 9 13 13 13 12 13 15 17 18 19 17 16 16 16 16 16 15 14 13 13 13 11 8 6 5 4 4 4 4 4 4 5 6 6 6 7
12 12 16 19 24 25 20 16 18 21 17 15 15 17 18 17 15 15 16 18 20 20 18 17 16 15 14 14 13 10 8 10 7 5 4 4 3 3 4 4 5 5 6 6
14 17 19 20 26 27 24 21 21 21 16 15 16 14 14 15 15 16 18 19 18 18 18 18 16 14 15 15 13 9 8 8 11 6 4 4 3 3 3 3 4 4 5 6
25 27 25 21 22 25 24 19 16 16 14 11 11 14 17 20 21 20 18 18 16 15 16 16 15 15 15 15 12 9 8 7 7 6 5 4 4 3 3 3 4 5 4 5
22 23 24 23 24 23 20 17 12 10 8 9 14 17 19 20 18 17 18 19 20 20 18 17 22 18 16 16 15 9 9 8 7 6 5 6 5 4 3 3 3 4 4 4
18 19 19 19 18 15 15 14 10 9 9 12 15 16 17 18 16 17 19 19 18 14 16 19 19 16 16 16 18 10 10 10 9 7 6 6 5 4 4 3 3 3 3 4
15 14 13 15 16 16 15 13 12 12 11 14 17 18 17 16 17 17 18 17 15 14 18 25 17 14 14 15 19 10 11 10 9 8 7 7 6 5 4 4 3 2 3 3
11 11 13 13 14 16 13 10 11 12 11 13 15 14 14 16 18 18 18 12 15 21 17 16 14 18 19 20 13 12 11 11 9 8 8 7 6 6 5 4 3 2 2 3
12 11 12 12 12 12 12 10 9 10 11 12 13 15 16 14 14 15 15 12 13 24 18 14 19 27 28 18 12 12 12 12 10 9 9 8 7 6 5 5 4 3 3 2
11 10 10 9 7 8 11 11 8 8 9 9 10 11 12 12 12 12 8 16 22 25 16 19 28 31 29 13 13 12 12 12 11 10 9 8 7 6 6 5 4 4 3 3
10 9 9 8 8 8 8 8 7 7 7 7 8 9 10 10 9 10 10 15 23 24 15 21 30 31 21 13 13 13 12 11 11 10 10 9 8 7 7 6 5 4 4 3
11 10 9 8 7 7 7 5 6 5 5 6 6 6 8 7 8 9 10 14 19 22 16 14 19 23 16 14 14 13 12 12 13 11 10 9 9 9 7 7 7 5 4 4
11 10 8 9 8 7 6 6 6 6 6 6 6 6 8 8 9 10 12 12 14 15 13 13 15 16 15 14 13 13 11 11 11 10 10 9 9 8 8 9 6 5 4 4
Wind_Direction
268 260 235 240 218 197 210 226 241 255 261 276 291 303 301 282 230 204 196 193 193 192 190 190 195 201 208 224 247 269 284 294 304 311 314 313 313 314 316 317 319 319 318 317
265 234 228 255 239 221 227 237 247 263 273 271 282 283 266 250 221 209 204 199 196 193 191 192 195 197 201 216 236 262 276 285 292 299 303 305 307 313 314 315 317 317 314 312
260 179 280 264 231 199 204 215 215 230 247 266 262 260 266 256 220 216 208 199 195 194 192 191 191 190 196 207 225 251 268 277 284 292 297 302 305 309 312 314 313 313 311 312
279 279 245 256 113 180 205 228 220 240 260 268 272 292 280 256 234 220 206 197 194 190 187 183 180 183 188 199 224 247 263 269 276 284 291 298 305 308 312 313 312 308 308 311
241 256 274 265 182 178 203 260 222 228 251 264 316 303 268 230 221 218 202 193 188 182 177 173 176 179 185 203 222 242 256 265 273 279 286 294 300 306 312 312 309 306 308 312
207 231 249 254 139 156 165 273 227 209 238 243 183 280 302 155 196 201 189 179 172 168 167 172 175 175 190 207 221 238 252 267 277 280 284 292 300 308 311 312 308 310 312 314
217 239 264 239 135 152 194 263 198 204 226 203 209 241 293 157 184 184 176 170 166 166 172 177 172 177 197 209 222 234 252 270 279 284 289 295 300 305 309 311 311 313 316 318
186 210 250 157 155 197 227 250 213 219 222 219 231 242 217 202 187 179 174 171 170 172 175 173 174 183 201 214 217 223 245 266 278 287 292 292 300 307 312 315 315 318 320 323
196 215 270 171 204 225 281 256 244 234 232 225 239 241 223 209 194 186 181 176 176 176 175 176 182 191 205 208 200 212 239 261 278 289 293 296 304 310 317 321 319 319 323 327
235 255 245 227 243 253 245 249 260 256 246 225 235 240 222 205 193 188 185 181 178 180 183 185 188 197 207 198 192 210 238 261 278 289 298 305 308 310 316 319 321 324 332 331
241 259 289 255 235 242 250 253 258 257 246 237 236 236 218 205 196 190 186 183 182 187 191 190 187 195 199 196 195 210 232 252 272 285 296 304 310 313 315 316 323 328 331 330
240 223 218 253 230 221 237 250 249 247 248 233 225 230 214 207 196 188 185 183 186 192 193 190 187 192 193 193 195 204 221 240 260 281 296 306 312 313 308 311 326 336 337 337
253 249 241 269 273 243 248 258 248 237 240 238 223 218 210 204 193 188 187 187 190 191 191 188 187 192 190 188 191 200 212 225 245 266 288 303 313 317 322 325 328 339 347 345
246 255 270 262 262 263 258 253 249 245 243 235 223 207 203 199 191 191 193 192 190 187 188 187 189 193 187 184 189 198 206 218 233 250 270 286 297 305 312 321 326 335 345 347
239 225 240 262 270 268 259 246 244 250 243 231 213 202 197 196 197 197 192 185 183 186 188 188 192 192 181 182 188 194 198 204 215 232 248 268 281 291 303 311 316 324 331 343
244 231 238 253 261 265 262 249 247 255 248 228 212 207 204 202 199 192 185 181 183 189 189 189 194 188 177 181 185 190 197 204 209 221 231 246 259 277 298 312 317 323 333 340
247 249 244 247 255 261 260 252 248 252 249 229 217 204 198 196 195 193 190 189 191 191 187 189 189 179 177 182 183 184 186 194 205 213 221 229 242 262 286 302 313 319 327 332
244 250 252 251 256 263 266 261 252 248 244 230 198 192 195 197 200 195 188 184 189 193 192 189 180 173 178 181 182 181 180 183 190 201 207 214 226 243 266 286 305 313 322 329
251 254 258 260 261 266 271 274 271 259 237 198 195 203 206 206 201 188 179 180 186 193 192 184 179 175 178 182 178 179 180 182 187 194 200 207 216 226 243 266 291 310 318 326
263 265 269 274 277 277 278 279 275 257 221 200 202 207 209 207 196 185 183 190 196 190 173 174 177 176 179 182 178 179 181 184 188 190 193 201 207 212 224 246 274 296 310 324
276 282 283 282 283 281 277 275 267 254 225 203 206 210 208 197 189 184 186 198 198 178 168 174 175 175 177 177 179 179 181 185 188 190 192 196 199 205 214 228 247 273 298 315
288 288 287 287 287 289 288 279 267 257 235 218 215 209 199 193 190 193 200 199 175 173 169 175 177 176 175 175 178 178 182 185 187 188 191 194 195 199 204 213 229 247 274 298
290 288 286 286 287 291 295 287 271 260 247 231 219 209 203 196 190 190 197 194 171 175 173 177 179 177 175 174 176 178 182 185 187 189 190 191 193 196 198 204 216 230 253 278
286 284 283 284 288 291 291 290 277 265 258 248 232 215 204 198 199 203 192 177 176 176 178 178 177 178 174 174 176 178 182 185 187 187 187 187 188 191 195 199 207 218 233 256
278 280 280 282 287 288 286 292 288 273 261 254 240 220 213 209 199 192 184 176 176 174 175 180 179 178 174 172 176 179 181 184 183 182 184 185 186 188 191 194 200 208 220 238
272 275 275 264 265 275 281 277 273 271 259 253 240 221 215 211 197 182 179 178 178 176 171 174 177 179 176 174 178 179 179 182 185 186 185 184 186 186 189 192 197 204 212 227
269 270 269 271 265 251 248 247 251 252 238 234 236 216 207 203 195 185 179 177 178 176 173 174 176 178 175 175 176 176 176 178 180 180 180 183 183 186 186 188 191 194 201 216